Lapse_Rate
6.2 6.1 5.9 6.0 6.1 6.3 6.8 7.1 7.0 6.9 6.9 6.8 6.9 6.8 6.7 7.1 7.5 7.2 7.2 7.3 7.1 6.8 6.5 6.3 5.8 5.8 6.1 6.1 6.0 5.9 5.9 6.0 6.0 6.1 6.0 6.0 6.0 6.1 6.2 6.2 6.1 6.2 6.1 6.1 6.0 5.9 5.9 5.7 5.5
6.3 6.3 6.1 5.9 5.9 6.1 6.8 7.1 6.9 7.0 7.1 6.9 7.0 6.9 6.5 7.2 7.4 7.2 7.1 7.3 7.2 6.8 6.5 6.3 5.8 5.8 6.1 6.2 5.9 5.9 5.8 6.0 6.1 6.1 6.1 6.0 6.1 6.2 6.3 6.3 6.3 6.3 6.2 6.2 6.2 6.0 6.1 6.0 5.8
6.5 6.3 6.1 5.9 5.9 6.2 6.7 6.7 6.9 7.0 6.7 6.7 6.7 7.0 6.7 7.0 7.0 7.3 7.2 7.3 7.3 6.8 6.4 6.2 6.0 5.8 6.1 6.1 6.1 5.9 5.9 6.0 6.2 6.1 6.1 6.1 6.2 6.4 6.4 6.3 6.3 6.4 6.3 6.4 6.3 6.1 6.1 6.4 6.0
6.7 6.5 6.1 6.1 6.6 6.8 6.7 6.9 6.8 7.2 7.0 6.8 6.8 6.7 6.7 6.9 6.9 7.2 7.1 7.2 7.2 6.8 6.3 6.1 6.0 5.9 6.1 6.1 6.1 6.0 6.0 6.1 6.1 6.1 6.1 6.2 6.3 6.3 6.4 6.4 6.3 6.4 6.4 6.5 6.4 6.4 6.4 6.5 6.3
6.7 6.5 6.1 6.4 7.1 7.4 6.8 6.5 6.8 7.0 7.2 6.9 6.8 7.0 6.8 6.8 6.8 7.1 7.2 7.2 7.2 6.8 6.3 6.0 6.0 5.9 6.1 6.0 6.1 6.0 6.1 6.2 6.2 6.2 6.3 6.3 6.3 6.2 6.3 6.4 6.4 6.5 6.4 6.5 6.4 6.4 6.4 6.5 6.5
6.6 6.4 6.2 6.7 7.4 7.4 6.9 6.6 6.5 6.7 6.9 7.0 6.9 6.9 6.9 6.8 6.8 7.1 7.3 7.0 7.2 6.6 6.3 6.1 6.0 5.9 6.0 5.9 6.0 6.0 6.0 6.2 6.3 6.3 6.3 6.3 6.3 6.2 6.3 6.4 6.4 6.4 6.5 6.4 6.3 6.3 6.3 6.6 6.6
6.7 6.3 6.4 6.9 7.5 7.2 7.3 6.5 6.3 6.6 6.7 6.8 6.9 7.0 6.8 7.0 6.9 7.1 7.2 7.1 7.1 6.8 6.2 6.2 6.1 6.0 6.0 5.8 6.0 6.0 5.9 6.0 6.1 6.4 6.2 6.2 6.3 6.2 6.2 6.4 6.3 6.4 6.4 6.5 6.5 6.3 6.4 6.6 6.6
6.5 6.3 6.2 6.6 7.1 7.4 6.9 6.7 6.6 6.4 6.8 7.0 6.9 7.1 7.0 7.0 7.1 7.1 7.0 7.1 7.2 7.0 6.4 6.3 6.1 6.1 6.1 6.0 6.0 6.1 6.0 6.0 5.9 6.3 6.4 6.3 6.2 6.3 6.2 6.3 6.4 6.4 6.4 6.4 6.4 6.4 6.5 6.5 6.6
6.3 5.8 6.4 6.8 7.0 7.1 6.8 6.5 6.7 6.6 6.6 6.7 6.9 7.1 7.2 7.0 7.1 7.1 7.1 7.1 7.3 7.2 6.8 6.4 6.2 6.2 6.1 6.0 5.9 6.2 6.2 6.0 6.0 6.1 6.2 6.4 6.3 6.2 6.3 6.2 6.3 6.3 6.4 6.5 6.4 6.2 6.3 6.5 6.6
6.1 5.8 6.5 6.6 6.4 6.5 6.7 6.8 6.7 6.4 6.4 6.6 6.7 7.0 7.3 7.0 6.5 6.9 7.2 7.2 7.2 7.2 7.2 6.8 6.5 6.4 6.3 6.2 6.0 6.1 6.3 6.1 6.1 6.2 6.2 6.3 6.4 6.2 6.2 6.2 6.4 6.4 6.4 6.4 6.4 6.3 6.2 6.3 6.4
6.0 6.1 6.6 6.4 6.4 6.2 6.6 6.7 6.7 6.5 6.5 6.6 6.6 6.8 7.1 7.2 7.0 6.6 6.8 7.0 7.0 7.1 7.1 7.0 6.8 6.7 6.6 6.5 6.1 6.2 6.2 6.2 6.1 6.2 6.1 6.1 6.1 6.0 5.9 6.0 6.2 6.5 6.4 6.2 6.2 6.2 6.2 6.2 6.2
5.9 6.1 6.4 6.5 6.4 6.2 6.3 6.5 6.5 6.6 6.4 6.6 6.7 6.8 6.7 7.0 6.9 6.9 6.4 6.9 7.2 7.1 7.1 7.0 6.9 6.8 6.6 6.5 6.3 6.1 6.1 6.2 6.1 6.0 6.0 6.0 6.1 6.0 5.8 5.8 5.9 6.1 6.3 6.2 6.1 6.1 6.1 6.0 6.0
6.0 5.8 6.3 6.4 6.5 6.5 6.2 6.5 6.7 6.6 6.8 6.6 6.9 7.0 6.8 6.7 6.9 7.0 6.5 6.2 6.5 6.9 6.9 7.0 6.9 6.8 6.9 6.4 6.3 6.3 6.2 6.2 6.2 6.1 5.9 5.9 5.9 5.9 5.9 5.8 5.9 5.9 6.0 6.1 6.2 6.2 6.1 6.0 6.0
6.0 6.1 6.2 6.2 6.3 6.4 6.2 6.2 6.6 6.6 6.6 7.1 6.8 6.9 6.6 6.4 6.4 6.8 7.0 6.6 6.7 6.6 7.1 6.9 7.1 7.0 6.8 6.7 6.5 6.3 6.3 6.2 6.3 6.3 6.2 6.0 6.0 6.0 5.9 5.9 5.8 5.8 5.8 5.8 5.9 6.1 6.1 5.9 5.9
6.1 6.2 6.0 5.9 6.1 5.9 6.1 6.2 6.2 6.8 6.5 6.6 6.4 6.3 6.5 6.4 6.4 6.5 6.6 6.7 6.8 6.6 7.0 6.8 7.1 7.2 7.0 6.8 6.6 6.6 6.3 6.4 6.4 6.2 6.4 6.3 6.3 6.2 6.2 6.2 6.0 5.8 5.8 5.8 5.7 5.7 5.8 6.0 5.8
6.2 6.1 5.8 5.8 5.9 6.0 5.9 5.8 6.0 6.4 6.2 6.4 6.3 5.9 6.5 6.4 6.5 6.3 6.2 6.4 6.5 6.5 6.5 6.3 7.2 7.2 7.2 7.1 6.8 6.7 6.6 6.5 6.5 6.5 6.6 6.5 6.4 6.3 6.3 6.3 6.2 6.1 6.0 5.9 5.7 5.6 5.7 5.8 5.8
6.2 6.0 5.8 5.7 5.6 5.4 5.5 5.9 6.9 6.9 6.6 6.5 6.7 6.4 6.5 6.3 6.2 6.6 6.5 6.3 6.2 6.4 6.2 6.4 6.8 7.4 7.3 7.2 7.0 6.9 6.8 6.7 6.7 6.6 6.8 6.7 6.6 6.6 6.3 6.3 6.3 6.2 6.1 5.9 5.6 5.5 5.6 5.7 5.7
5.8 5.8 5.7 5.5 5.7 5.7 5.9 6.3 6.6 6.6 6.2 6.4 6.4 6.8 6.5 6.6 6.6 6.3 6.4 6.5 6.1 6.2 6.4 6.4 6.0 6.4 6.8 6.7 6.4 6.8 6.9 6.9 6.9 6.9 6.9 6.8 6.6 6.6 6.6 6.6 6.5 6.5 6.4 6.1 5.8 5.5 5.5 5.5 5.7
5.3 5.2 5.4 5.3 5.2 5.7 6.3 6.3 6.0 6.3 6.4 6.4 6.0 6.1 6.4 6.0 6.3 6.3 6.2 6.0 6.2 6.1 6.2 6.2 6.4 6.4 6.1 6.1 6.6 6.9 7.2 7.1 6.9 7.0 6.8 6.7 6.6 6.6 6.6 6.5 6.4 6.3 6.5 6.2 6.0 5.8 5.6 5.5 5.4
5.3 5.5 5.4 5.3 5.5 6.1 6.1 5.6 5.8 5.9 6.2 6.5 6.6 6.3 6.4 6.2 6.0 6.2 6.1 6.1 5.8 5.9 5.9 6.0 5.9 6.2 6.3 6.4 6.0 6.4 6.7 6.7 6.6 6.4 6.3 6.3 6.2 6.3 6.4 6.4 6.4 6.4 6.4 6.3 6.2 6.0 5.7 5.5 5.3
5.3 5.2 5.1 5.0 5.9 6.2 6.3 5.9 5.6 5.5 5.5 5.6 6.1 6.2 6.3 6.3 6.4 6.3 6.3 5.8 5.8 5.9 5.7 5.7 5.9 6.1 6.1 6.3 6.2 6.0 6.0 6.3 6.5 6.7 6.6 6.3 6.1 6.0 6.1 6.3 6.4 6.4 6.3 6.3 6.1 6.1 5.9 5.6 5.4
5.6 5.6 5.4 5.5 5.6 6.0 6.1 5.6 6.0 5.8 5.7 5.8 5.7 5.7 6.0 6.4 6.2 6.3 6.3 6.1 5.8 5.7 5.5 5.7 6.1 6.0 6.0 6.1 6.1 6.3 6.3 6.1 6.0 6.1 6.0 6.1 5.9 5.8 5.6 5.9 6.1 6.4 6.5 6.5 6.3 6.2 6.1 5.9 5.9
5.5 5.3 5.3 5.5 5.3 5.6 5.6 5.6 5.8 6.0 6.1 5.9 5.7 5.6 5.6 5.6 5.9 6.1 6.1 6.0 6.1 5.9 5.9 5.6 5.5 5.9 5.8 5.7 6.0 6.0 6.1 6.3 6.3 6.3 5.9 5.5 6.0 5.5 5.4 5.6 5.7 6.0 6.2 6.5 6.4 6.3 6.2 6.1 6.0
5.6 5.5 5.3 5.4 5.6 5.0 5.6 5.5 5.9 5.8 5.6 5.7 5.5 5.4 5.5 5.6 5.5 5.5 5.5 5.8 5.8 5.9 6.0 5.9 5.9 5.8 5.7 5.7 5.5 5.8 5.9 6.0 6.0 6.3 6.2 5.9 5.3 4.9 5.5 5.6 5.8 6.5 6.1 6.3 6.3 6.1 6.1 6.1 5.9
5.7 5.6 5.0 4.3 4.1 3.9 5.5 5.6 5.2 5.0 5.0 5.2 5.7 5.7 5.6 5.6 5.7 5.7 5.6 5.6 5.5 5.4 5.6 5.9 5.9 6.1 5.9 5.8 5.9 5.8 5.5 5.5 5.7 5.9 6.0 6.0 5.6 5.6 5.5 5.7 5.4 5.7 6.0 6.1 6.1 6.0 5.9 6.0 6.0
5.3 4.8 4.7 3.3 4.4 4.2 5.6 5.5 5.2 5.1 5.1 5.2 5.2 5.5 5.6 5.8 5.9 6.2 6.1 5.9 5.9 5.8 5.6 5.7 5.8 5.8 5.9 6.0 5.9 5.9 6.0 5.7 5.5 5.6 5.8 5.9 5.9 5.9 5.3 5.6 5.5 5.8 5.8 5.9 5.9 6.1 6.0 6.0 6.0
5.1 4.9 4.8 4.9 4.2 4.0 5.1 5.1 5.0 5.0 4.9 5.4 5.5 5.5 5.6 5.8 5.9 6.0 5.9 6.1 6.1 5.8 5.7 5.6 5.6 5.6 5.7 5.8 5.9 6.0 6.0 5.8 5.7 5.5 5.5 5.7 5.8 6.1 6.0 6.0 5.8 5.7 5.8 5.9 5.8 5.7 5.7 5.7 5.9
5.0 4.7 4.7 4.8 3.4 3.4 4.7 4.6 4.5 5.3 5.6 5.4 5.1 5.0 5.2 5.6 5.8 5.9 6.0 6.1 6.3 6.3 6.0 5.9 5.9 5.6 5.4 5.5 5.7 5.8 5.8 5.8 5.7 5.8 5.7 6.1 6.3 6.1 6.1 6.0 5.9 5.8 5.6 5.5 5.6 5.7 5.8 5.6 5.9
4.9 4.7 4.7 4.4 4.6 3.5 3.7 4.2 4.3 4.5 4.9 5.0 4.5 4.5 4.6 4.9 5.0 5.4 5.6 6.2 6.4 6.2 6.1 6.2 6.3 6.1 6.0 5.7 5.5 5.7 5.9 5.9 5.9 5.7 5.8 5.8 6.0 6.2 6.1 5.9 5.7 5.8 5.4 5.6 5.7 5.6 5.6 5.4 5.6
4.6 4.2 4.4 4.4 4.4 4.4 4.5 4.7 4.4 4.6 4.8 4.6 4.2 4.2 4.4 4.7 5.1 5.4 5.2 5.3 5.2 5.4 5.7 6.2 6.6 6.6 6.5 6.1 6.1 6.0 6.2 5.8 5.8 5.8 5.7 5.8 6.0 6.0 5.9 6.0 5.7 5.3 5.6 5.5 5.1 5.4 5.5 5.6 5.2
Wind_Speed
16 20 1 4 3 4 3 5 2 6 6 4 2 3 6 2 4 4 4 6 17 17 24 25 26 25 23 23 22 20 20 20 20 18 18 16 15 14 13 15 15 14 15 12 15 17 22 24 25
13 5 4 2 4 2 5 4 3 3 2 4 3 4 4 1 3 6 8 9 19 21 24 23 27 26 22 23 23 21 20 20 19 18 18 15 14 13 12 16 15 14 15 13 15 16 22 25 25
5 1 3 4 4 7 5 5 4 1 2 1 3 4 2 2 4 10 6 16 20 18 22 23 28 25 23 22 23 20 19 21 21 19 17 17 12 13 12 18 17 15 15 15 15 16 20 26 24
2 3 4 2 8 5 7 6 2 4 2 3 3 4 3 4 7 5 14 16 17 15 20 24 28 25 23 22 20 20 20 18 20 20 18 13 13 13 15 19 18 15 14 17 15 15 19 24 24
3 2 2 3 6 3 3 6 1 3 5 1 3 2 2 4 6 14 15 15 18 12 17 21 26 25 24 22 20 19 17 17 18 18 18 14 15 14 16 19 18 15 13 15 13 12 19 24 24
3 2 2 5 4 3 3 5 4 3 4 3 6 4 1 2 9 10 14 14 18 13 16 19 26 24 23 22 20 18 15 15 14 17 17 16 14 13 17 19 18 15 13 14 13 12 21 24 24
5 3 3 2 3 4 3 3 4 7 4 5 9 5 1 4 4 10 11 11 12 16 15 17 22 23 24 22 20 18 17 17 13 16 17 15 13 12 18 19 18 16 14 14 12 13 18 22 21
3 4 2 4 2 3 4 5 2 5 5 3 2 6 4 5 7 8 10 13 11 13 12 15 18 19 20 20 20 20 17 16 16 17 17 14 14 14 17 19 17 16 15 14 13 15 20 21 23
3 2 2 3 4 1 5 6 6 5 3 3 4 3 5 17 13 12 11 11 11 11 11 14 15 15 15 19 18 20 20 18 16 15 16 16 14 15 15 17 17 15 15 15 13 15 17 20 23
3 3 6 2 4 3 5 5 5 5 5 5 4 6 12 16 18 14 12 11 12 11 12 10 14 12 14 16 15 17 20 18 16 15 15 16 15 16 16 18 17 14 15 15 14 15 19 20 17
2 4 1 5 5 5 4 6 4 2 3 2 3 6 8 15 15 15 14 12 13 11 8 11 11 14 14 11 10 12 14 16 16 15 16 16 15 16 16 14 15 13 13 13 13 15 15 16 18
2 3 3 5 7 4 4 6 6 3 0 5 4 5 6 7 12 15 13 12 12 11 11 11 14 12 15 11 9 11 10 13 13 15 17 15 10 11 12 13 13 12 11 11 10 13 13 11 11
4 6 6 6 8 5 5 3 2 5 6 8 7 5 4 6 5 7 10 10 10 12 11 12 13 11 14 15 11 10 9 13 14 16 17 16 12 10 13 14 13 12 11 10 9 11 12 11 11
4 5 9 3 4 5 2 1 4 4 5 9 5 2 1 4 6 5 8 12 12 12 13 13 13 15 16 12 15 11 11 14 14 15 17 16 13 12 11 11 11 11 12 9 11 11 10 10 12
4 6 7 5 3 2 2 4 4 3 6 6 5 3 4 6 3 8 11 13 15 13 13 15 14 18 14 14 16 15 15 14 12 15 21 19 15 14 13 10 10 13 15 13 8 7 6 7 6
4 3 5 6 8 5 2 2 6 8 6 5 2 3 6 8 8 9 7 6 8 14 15 14 14 15 15 14 17 16 15 16 15 14 18 20 18 17 14 10 9 15 14 12 10 8 3 2 3
7 2 4 7 6 6 6 5 5 6 5 5 5 4 3 6 7 9 10 9 9 11 13 17 16 16 16 14 16 17 19 16 16 15 18 18 20 20 16 13 13 16 12 10 10 3 4 3 2
4 4 4 4 8 6 6 5 11 8 3 5 5 5 5 7 7 7 9 11 10 10 10 12 13 13 16 10 10 10 10 15 16 15 17 22 19 20 17 13 14 16 10 5 6 6 2 2 4
1 2 3 3 3 5 5 7 9 13 8 7 5 6 8 9 11 11 8 7 7 7 7 9 12 13 10 9 10 9 10 9 8 13 18 22 21 20 17 12 13 16 9 9 7 4 4 2 3
3 3 4 3 5 3 6 6 5 13 16 18 17 15 15 15 17 18 16 14 7 7 10 12 11 11 12 9 9 7 10 8 10 15 15 17 20 22 20 17 13 15 8 8 9 7 3 2 4
4 4 4 3 7 2 7 1 5 3 11 15 17 13 15 15 16 18 18 15 13 14 10 7 10 12 12 11 6 2 3 2 4 5 7 11 18 21 22 20 15 14 14 9 9 9 11 6 5
2 2 2 4 4 2 4 2 3 6 7 14 15 15 15 16 16 15 17 17 15 14 13 14 7 7 13 11 9 12 9 9 8 8 9 10 20 20 23 21 19 16 13 11 10 9 10 8 7
2 5 3 2 2 3 4 4 4 6 10 19 15 14 13 12 13 14 15 15 15 13 12 11 13 6 6 12 14 11 10 7 4 3 8 8 11 19 20 20 19 14 12 11 13 11 11 9 6
5 3 5 4 3 3 3 3 4 5 7 15 16 16 16 15 13 13 13 14 15 14 13 13 12 13 6 6 11 14 15 10 6 8 8 8 8 9 16 20 20 19 14 10 11 12 16 13 12
6 5 3 5 5 3 2 2 1 4 3 6 14 17 17 16 16 15 16 15 15 16 17 14 14 13 11 8 9 11 14 12 12 11 10 10 9 7 11 11 12 10 16 16 15 12 12 13 12
4 3 2 4 2 4 3 1 3 1 1 6 8 16 18 18 17 18 17 15 14 15 15 16 14 14 11 10 10 10 11 9 10 11 10 10 10 11 13 11 17 17 18 18 16 10 11 12 12
3 4 3 3 2 1 3 2 4 4 6 11 15 16 16 17 18 19 17 14 14 12 12 16 15 14 12 11 10 10 11 11 11 14 11 10 11 10 13 12 14 15 15 15 13 11 13 11 13
3 1 3 3 3 3 3 2 3 13 16 16 16 14 15 15 15 15 15 15 12 13 12 13 13 13 13 15 13 11 13 12 12 10 11 11 11 11 10 12 12 14 14 14 14 13 14 14 12
4 3 2 1 2 2 3 2 4 7 9 10 11 12 13 15 16 14 14 14 13 13 12 12 11 13 12 11 13 11 10 10 9 8 8 9 8 8 10 11 12 13 14 13 13 15 16 16 16
1 2 2 3 4 1 2 3 3 4 5 6 8 10 12 14 14 15 15 14 13 13 13 13 13 13 12 10 10 4 6 5 1 3 5 6 9 10 11 11 11 12 13 13 14 16 15 16 16
Wind_Direction
328 317 348 33 50 66 251 257 256 305 341 336 360 152 173 72 158 204 133 142 135 141 148 147 145 143 146 137 144 142 140 135 135 133 132 135 130 133 127 129 121 124 125 116 115 109 114 108 103
324 317 35 79 114 155 255 249 227 256 250 132 44 3 32 63 59 116 122 155 141 143 147 149 146 145 146 144 146 147 141 139 136 133 136 137 137 140 138 128 123 120 126 130 118 121 123 116 113
307 24 91 139 171 200 204 222 214 206 177 140 90 63 22 98 34 155 136 147 140 144 147 147 144 147 147 152 148 149 145 148 138 140 144 146 146 142 136 129 122 121 127 133 126 125 129 122 119
357 15 27 136 221 255 185 201 189 344 334 98 116 56 343 317 153 175 144 143 140 143 147 150 138 149 154 155 154 152 149 157 143 144 146 149 141 138 142 128 122 122 126 133 124 127 135 126 123
21 54 106 258 252 231 205 264 28 306 306 78 124 145 357 11 101 130 142 147 144 142 147 147 147 154 153 161 158 152 163 143 151 145 145 139 131 123 135 123 120 121 120 122 124 130 141 131 127
30 89 96 224 258 292 249 266 318 251 259 137 84 108 147 67 121 139 140 150 151 139 148 147 148 156 158 158 161 153 149 136 133 144 137 132 127 127 139 126 124 123 124 118 117 120 137 132 128
120 80 224 241 263 270 250 192 226 244 214 225 151 122 204 108 122 133 131 144 147 140 143 146 152 159 160 167 161 158 160 137 134 148 134 132 131 133 139 126 127 126 131 122 119 128 132 135 131
107 109 241 256 209 299 351 308 345 172 230 101 136 169 195 160 123 115 122 145 148 149 140 150 150 160 161 166 170 164 157 139 137 134 134 131 129 131 133 126 123 126 129 122 114 123 134 131 133
106 64 229 267 175 197 336 10 329 293 127 47 20 138 142 129 123 132 146 156 161 157 152 153 153 158 159 166 175 164 150 152 143 141 134 131 134 137 134 124 120 121 122 119 114 113 122 125 128
118 144 222 249 357 26 334 11 322 13 25 23 38 29 123 135 141 151 164 168 170 169 161 159 157 157 159 169 169 151 151 153 153 149 146 141 140 140 139 132 120 120 119 113 118 119 127 127 127
152 196 234 2 355 336 305 347 333 15 26 19 301 164 143 150 158 151 176 175 174 166 166 166 160 160 164 162 157 142 146 151 158 157 152 142 139 143 142 133 130 127 125 115 112 124 130 134 133
311 40 23 340 331 2 356 332 342 19 228 305 252 176 129 149 165 160 169 178 174 169 173 170 165 167 169 146 156 149 142 150 152 159 155 139 134 137 139 138 148 144 139 127 121 129 136 134 144
13 333 322 322 299 319 323 359 320 332 8 36 82 100 149 153 137 169 168 170 185 181 177 177 168 173 172 164 163 161 158 160 164 164 165 151 158 156 154 156 157 155 155 150 141 140 139 137 142
301 290 293 292 272 294 307 280 27 27 10 18 87 104 225 209 163 137 169 177 184 187 186 184 177 176 174 179 173 172 168 161 166 170 172 168 168 169 166 170 158 170 178 170 159 153 158 150 155
288 342 334 9 324 247 171 291 188 321 1 16 357 329 272 254 264 217 193 185 183 191 187 188 183 182 180 183 179 178 175 169 171 177 177 175 171 172 172 167 162 181 185 176 161 140 144 130 140
2 50 28 359 24 339 29 322 298 31 13 322 303 276 284 282 248 239 225 222 212 188 192 194 192 189 187 187 181 185 186 180 184 179 179 179 177 177 175 171 178 183 179 176 166 153 126 132 151
15 36 17 338 49 355 49 276 298 359 11 339 335 343 330 293 273 249 237 214 203 208 198 195 194 189 192 194 183 187 189 187 187 183 185 183 182 181 182 184 185 179 181 178 168 157 135 163 160
333 12 352 335 343 357 353 303 304 315 303 270 291 319 337 326 310 283 244 230 205 208 211 199 197 198 194 189 183 185 194 199 192 181 191 184 186 186 184 190 186 183 181 181 172 159 129 153 167
350 18 318 269 343 343 339 315 322 343 7 342 341 2 7 356 339 355 341 264 207 202 205 207 191 194 189 195 185 185 196 195 197 193 186 187 188 184 186 190 194 191 185 187 176 147 154 124 134
29 7 348 296 333 355 352 316 355 46 44 48 45 33 19 13 6 5 15 8 325 277 226 216 198 192 197 196 199 200 192 201 199 187 192 190 184 179 188 193 196 193 189 188 176 154 136 131 175
44 60 350 293 315 7 347 60 30 50 41 38 35 25 23 15 2 357 1 0 6 9 324 275 221 193 197 199 197 221 184 110 157 202 197 190 184 186 193 199 194 195 188 192 188 178 171 173 194
27 271 275 309 19 337 24 204 19 350 17 29 22 16 5 2 358 354 352 353 359 356 354 352 305 251 191 183 190 198 197 202 202 196 204 193 189 192 196 199 196 193 202 191 193 187 187 159 187
299 317 298 251 207 50 5 70 279 10 353 355 358 2 357 356 354 348 343 344 341 349 347 346 346 308 264 195 189 197 209 218 190 170 177 200 202 201 198 199 202 200 198 204 191 187 195 197 183
296 18 42 36 50 42 294 105 339 11 347 341 341 352 351 349 351 345 338 339 339 343 345 344 345 335 290 232 211 196 203 201 186 188 197 205 206 213 211 203 203 205 206 203 201 195 198 199 210
2 45 2 9 15 203 37 48 345 348 2 341 334 341 347 347 345 344 342 343 336 338 338 337 336 325 328 297 227 221 215 213 205 197 200 199 204 209 220 218 219 212 210 209 204 205 205 207 207
10 13 76 173 343 288 325 276 175 31 126 352 352 347 344 343 343 341 335 331 333 329 329 326 325 315 319 310 286 222 221 207 207 208 209 209 209 210 213 210 220 223 216 214 206 207 213 211 215
333 46 330 106 34 13 275 78 305 9 10 360 359 356 347 343 343 341 336 333 328 328 324 322 316 312 308 301 291 255 223 216 219 217 214 214 212 216 216 216 215 222 219 216 211 212 217 213 219
93 264 22 6 32 328 310 333 312 347 344 348 356 353 341 342 341 341 340 337 333 328 327 321 315 311 307 301 291 260 234 223 224 231 221 220 220 214 212 215 218 225 225 221 215 219 224 221 223
8 22 0 296 143 159 304 282 357 341 336 343 346 339 344 345 349 346 344 339 337 337 338 334 332 330 324 315 299 247 234 228 223 216 222 212 223 207 210 213 220 223 228 222 220 224 229 227 229
14 155 95 101 306 266 187 260 1 348 344 331 336 336 343 348 348 343 339 337 343 347 348 349 348 340 335 332 339 43 64 30 344 227 245 249 220 223 222 221 225 228 223 219 224 228 228 232 237